Location: Patterson (historical)
(35.1418°N, 90.5529°W)
Time: 18:37:22
(UTC+00:00)

IGS 5A - Pass Details

Date: 11 December 2025
Orbit: 551 x 554 km, 97.4° (Epoch: 8 January)

Event Time Altitude Azimuth Distance (km) Brightness Sun altitude
Rises 23:27:05 0° 178° (S) 2,719 7.2 -7.6°
Reaches altitude 10° 23:29:14 10° 183° (S) 1,829 6.3 -8.0°
Maximum altitude 23:33:06 52° 260° (W) 693 4.3 -8.7°
Drops below altitude 10° 23:37:00 10° 338° (NNW) 1,843 6.0 -9.4°
Sets 23:39:11 0° 343° (NNW) 2,742 6.8 -9.9°
